sat.trackr.live / text

‹ back to catalog

STARLINK-35924

NORAD 66516 · 2025-265A

PAYLOAD ACTIVE UNKNOWN

§ Identity

Operator
Country
US
Launch date
2025-11-19
Launch site
AFETR
Launch vehicle
Mass (kg)
RCS (m²)

Purposes: comms

External: N2YO · Heavens-Above · Gunter

§ Orbital elements

Epoch: 2026-09-20T06:15:58.355712Z

Period
94.27 min
Inclination
43.0013°
Eccentricity
0.0001186
Mean motion
15.27592024 rev/d
Perigee alt
482.2 km
Apogee alt
483.8 km
Semi-major
6,861.2 km
B*
4.0161e-4
RAAN
258.8458°
Arg perigee
264.8712°
Mean anomaly
95.2004°
Rev number
4,687

§ Raw data

STARLINK-359241 66516U 25265A   26263.26109208  .00010809  00000+0  40161-3 0  99932 66516  43.0013 258.8458 0001186 264.8712  95.2004 15.27592024 46875

JSON: /api/v1/satellites/66516 · /tle

For live sub-satellite position, see the globe view (requires WebGL).

§ Visibility from observer

Set your observer location to see the next 7 days of passes ≥ 10°. The values pass through the URL so the page stays shareable.

No JS? Fill the form by hand. The geolocation button needs JavaScript.